sat.trackr.live / text

‹ back to catalog

QIANFAN-110

NORAD 68637 · 2026-075B

PAYLOAD ACTIVE UNKNOWN

§ Identity

Operator
Country
PRC
Launch date
2026-04-07
Launch site
WSC
Launch vehicle
Mass (kg)
RCS (m²)

External: N2YO · Heavens-Above · Gunter

§ Orbital elements

Epoch: 2026-09-20T04:09:13.763808Z

Period
106.59 min
Inclination
88.9865°
Eccentricity
0.0002245
Mean motion
13.51021837 rev/d
Perigee alt
1,066.8 km
Apogee alt
1,070.2 km
Semi-major
7,446.6 km
B*
7.2219e-5
RAAN
311.3416°
Arg perigee
96.9494°
Mean anomaly
263.1913°
Rev number
2,261

§ Raw data

QIANFAN-1101 68637U 26075B   26263.17307597  .00000059  00000+0  72219-4 0  99962 68637  88.9865 311.3416 0002245  96.9494 263.1913 13.51021837 22616

JSON: /api/v1/satellites/68637 · /tle

For live sub-satellite position, see the globe view (requires WebGL).

§ Visibility from observer

Set your observer location to see the next 7 days of passes ≥ 10°. The values pass through the URL so the page stays shareable.

No JS? Fill the form by hand. The geolocation button needs JavaScript.